Preview of NWS' New Version of Forecast
This preview is not operational and should not be used for support decisions.

Regional Weather Roundup (RWR)

Issued by National Weather Service (NWS)

                            
000
ASUS43 KLSX 182007
RWRMO 

WEATHER SUMMARY FOR MISSOURI
NATIONAL WEATHER SERVICE SPRINGFIELD MO
300 PM CDT THU APR 18 2019

NOTE: "FAIR" INDICATES FEW OR NO CLOUDS BELOW 12,000 FEET WITH NO
       SIGNIFICANT WEATHER AND/OR OBSTRUCTIONS TO VISIBILITY.
       CURRENT SKY AND/OR WEATHER CONDITIONS ARE NOT AVAILABLE FOR
       CHILLICOTHE AND FARMINGTON.

MOZ001>031-035>038-043-044-053-054-182100-
...NORTHERN AND WESTERN MISSOURI...
  
CITY           SKY/WX    TMP DP  RH WIND       PRES   REMARKS
KANSAS CTY INT PTSUNNY   58  41  53 N15G28    29.84F                  
KANSAS C DTWN  CLOUDY    57  40  52 NW20G26   29.83F                  
LEE'S SUMMIT   CLOUDY    54  39  57 N17       29.84F                  
ST JOSEPH      PTSUNNY   60  40  47 N17G25    29.86F                  
CHILLICOTHE      N/A     58  39  49 NW15G23   29.83S                  
KIRKSVILLE     PTSUNNY   57  41  55 NW21G29   29.80S                  
     
$$
MOZ066>068-077>081-088>096-101>105-182100-
...SOUTHWEST MISSOURI...
  
CITY           SKY/WX    TMP DP  RH WIND       PRES   REMARKS
SPRINGFIELD    CLOUDY    52  43  71 N15G26    29.78F                  
JOPLIN         CLOUDY    59  44  57 N21G29    29.81F                  
BRANSON        LGT RAIN  48  48 100 NW14G22   29.78S FOG              
               
$$
MOZ032>034-039>042-045>050-055>058-069>072-182100-
...CENTRAL MISSOURI...  
  
CITY           SKY/WX    TMP DP  RH WIND       PRES   REMARKS
COLUMBIA       CLOUDY    52  42  69 N15       29.79S                  
JEFFERSON CITY CLOUDY    53  40  61 NW8       29.79F                  
ROLLA          CLOUDY    48  43  82 NW10      29.78F                  
SEDALIA        CLOUDY    52  45  77 N18       29.81F                  
WARRENSBURG    CLOUDY    54  41  62 NW14G20   29.83S                  
OSAGE BEACH    CLOUDY    52  43  71 N9G17     29.78F                  
               
$$
MOZ051-052-059>065-182100-
...EAST CENTRAL MISSOURI...
  
CITY           SKY/WX    TMP DP  RH WIND       PRES   REMARKS
ST LOUIS INTL  LGT RAIN  48  44  86 NW13      29.76F                  
SPIRIT OF STL  LGT RAIN  50  46  86 NW10      29.76F                  
ST CHARLES     LGT RAIN  49  44  83 NW12      29.77S                  
                   
$$
MOZ072>076-082>087-097>100-106>115-182100-
...SOUTH CENTRAL AND SOUTHEAST MISSOURI...
  
CITY           SKY/WX    TMP DP  RH WIND       PRES   REMARKS
CAPE GIRARDEAU LGT RAIN  64  60  87 SW8       29.66F                  
FARMINGTON     RAIN      50  48  93 N9        29.74S                  
POPLAR BLUFF   LGT RAIN  63  62  97 S9        29.68S                  
WEST PLAINS    LGT RAIN  50  47  89 N12G22    29.72F FOG              
                                       
$$